�������l�o���
Date,Time,MP-1(��Sv/h),MP-2(��Sv/h),MP-3(��Sv/h),MP-4(��Sv/h),MP-5(��Sv/h),MP-6(��Sv/h),MP-7(��Sv/h),MP-8(��Sv/h),����,����(m/s),���J
2022/06/27,00:00,0.579,0.842,0.535,1.011,0.718,0.342,0.592,0.559,���쐼,4.3,��
2022/06/27,00:10,0.579,0.838,0.534,1.013,0.716,0.342,0.594,0.559,���쐼,4.8,��
2022/06/27,00:20,0.581,0.841,0.534,1.009,0.717,0.343,0.592,0.559,���쐼,4.8,��
2022/06/27,00:30,0.580,0.842,0.533,1.011,0.716,0.342,0.594,0.558,���쐼,5.3,��
2022/06/27,00:40,0.580,0.840,0.535,1.010,0.717,0.341,0.593,0.558,���쐼,4.6,��
2022/06/27,00:50,0.579,0.840,0.533,1.011,0.719,0.342,0.591,0.559,���쐼,4.0,��
2022/06/27,01:00,0.579,0.841,0.535,1.011,0.718,0.341,0.593,0.560,���쐼,3.9,��
2022/06/27,01:10,0.580,0.841,0.534,1.010,0.717,0.343,0.593,0.559,��,5.2,��
2022/06/27,01:20,0.580,0.841,0.534,1.012,0.719,0.342,0.592,0.560,���쐼,4.2,��
2022/06/27,01:30,0.579,0.841,0.534,1.011,0.716,0.341,0.592,0.558,���쐼,5.9,��
2022/06/27,01:40,0.578,0.842,0.534,1.011,0.717,0.343,0.594,0.558,���쐼,6.5,��
2022/06/27,01:50,0.579,0.842,0.534,1.012,0.718,0.342,0.593,0.558,���쐼,5.9,��
2022/06/27,02:00,0.580,0.842,0.535,1.011,0.719,0.342,0.594,0.560,���쐼,6.5,��
2022/06/27,02:10,0.580,0.842,0.534,1.013,0.719,0.342,0.594,0.559,���쐼,7.3,��
2022/06/27,02:20,0.580,0.841,0.534,1.013,0.718,0.342,0.595,0.560,���쐼,6.8,��
2022/06/27,02:30,0.581,0.841,0.534,1.011,0.718,0.342,0.594,0.559,���쐼,5.8,��
2022/06/27,02:40,0.580,0.841,0.535,1.011,0.718,0.343,0.595,0.561,���쐼,3.7,��
2022/06/27,02:50,0.578,0.842,0.533,1.011,0.718,0.341,0.595,0.559,���쐼,3.5,��
2022/06/27,03:00,0.578,0.840,0.535,1.012,0.720,0.344,0.594,0.559,��,4.6,��
2022/06/27,03:10,0.579,0.840,0.533,1.013,0.720,0.342,0.593,0.558,���k��,4.9,��
2022/06/27,03:20,0.578,0.841,0.534,1.013,0.717,0.341,0.593,0.559,���k��,3.9,��
2022/06/27,03:30,0.579,0.843,0.535,1.011,0.719,0.342,0.592,0.561,��,3.6,��
2022/06/27,03:40,0.578,0.841,0.534,1.014,0.718,0.342,0.594,0.560,��,3.1,��
2022/06/27,03:50,0.578,0.842,0.532,1.012,0.718,0.341,0.594,0.559,���쐼,3.3,��
2022/06/27,04:00,0.578,0.842,0.535,1.012,0.719,0.342,0.593,0.560,��,4.1,��
2022/06/27,04:10,0.578,0.841,0.534,1.012,0.719,0.342,0.594,0.560,��,2.3,��
2022/06/27,04:20,0.578,0.840,0.532,1.011,0.717,0.343,0.593,0.561,�k��,2.6,��
2022/06/27,04:30,0.579,0.842,0.534,1.016,0.721,0.342,0.594,0.561,���쐼,1.2,��
2022/06/27,04:40,0.579,0.842,0.536,1.012,0.717,0.343,0.593,0.560,�쐼,1.2,��
2022/06/27,04:50,0.579,0.841,0.535,1.014,0.719,0.342,0.594,0.560,���쐼,2.6,��
2022/06/27,05:00,0.578,0.841,0.535,1.012,0.720,0.341,0.594,0.559,���쐼,3.4,��
2022/06/27,05:10,0.576,0.843,0.535,1.012,0.719,0.342,0.594,0.560,���쐼,3.4,��
2022/06/27,05:20,0.579,0.841,0.535,1.012,0.719,0.342,0.595,0.562,��쐼,3.3,��
2022/06/27,05:30,0.576,0.844,0.533,1.014,0.718,0.342,0.594,0.560,�쐼,2.3,��
2022/06/27,05:40,0.577,0.840,0.534,1.013,0.719,0.342,0.595,0.558,�쐼,1.7,��
2022/06/27,05:50,0.577,0.841,0.533,1.013,0.719,0.341,0.595,0.559,�쐼,0.9,��
2022/06/27,06:00,0.579,0.841,0.535,1.014,0.718,0.342,0.595,0.559,��쐼,1.5,��
2022/06/27,06:10,0.579,0.843,0.533,1.013,0.720,0.342,0.595,0.559,�쐼,4.4,��
2022/06/27,06:20,0.579,0.842,0.535,1.012,0.719,0.341,0.595,0.561,�쐼,3.9,��
2022/06/27,06:30,0.578,0.842,0.535,1.014,0.720,0.341,0.595,0.561,�쐼,3.4,��
2022/06/27,06:40,0.578,0.842,0.533,1.012,0.720,0.340,0.595,0.559,�쐼,3.1,��
2022/06/27,06:50,0.577,0.841,0.534,1.015,0.719,0.341,0.596,0.560,�쐼,3.3,��
2022/06/27,07:00,0.577,0.841,0.535,1.011,0.718,0.341,0.595,0.561,�쐼,3.9,��
2022/06/27,07:10,0.580,0.841,0.536,1.012,0.720,0.340,0.594,0.558,��쐼,3.3,��
2022/06/27,07:20,0.579,0.843,0.534,1.012,0.719,0.342,0.594,0.560,��쐼,3.1,��
2022/06/27,07:30,0.580,0.839,0.535,1.015,0.720,0.342,0.595,0.561,�쐼,1.7,��
2022/06/27,07:40,0.579,0.841,0.535,1.014,0.720,0.342,0.595,0.561,�쐼,0.6,��
2022/06/27,07:50,0.579,0.841,0.535,1.015,0.721,0.341,0.594,0.559,��쐼,0.8,��
2022/06/27,08:00,0.578,0.841,0.535,1.015,0.721,0.342,0.595,0.561,��쐼,1.9,��
2022/06/27,08:10,0.579,0.840,0.533,1.015,0.719,0.342,0.595,0.559,��,1.7,��
2022/06/27,08:20,0.580,0.844,0.532,1.015,0.722,0.341,0.594,0.559,��,1.7,��
2022/06/27,08:30,0.578,0.841,0.533,1.011,0.721,0.343,0.595,0.561,��쓌,2.5,��
2022/06/27,08:40,0.580,0.844,0.534,1.014,0.721,0.342,0.595,0.559,��,3.5,��
2022/06/27,08:50,0.579,0.842,0.534,1.015,0.721,0.343,0.593,0.561,��,3.8,��
2022/06/27,09:00,0.580,0.842,0.538,1.017,0.719,0.344,0.594,0.561,��,4.1,��
2022/06/27,09:10,0.581,0.844,0.537,1.015,0.722,0.343,0.597,0.560,��,3.4,��
2022/06/27,09:20,0.579,0.841,0.537,1.016,0.721,0.343,0.595,0.559,��쓌,2.8,��
2022/06/27,09:30,0.577,0.840,0.537,1.017,0.719,0.342,0.597,0.560,��쓌,3.2,��
2022/06/27,09:40,0.578,0.842,0.536,1.015,0.720,0.342,0.595,0.558,��,2.6,��
2022/06/27,09:50,0.578,0.842,0.537,1.016,0.719,0.343,0.596,0.558,��,3.3,��
2022/06/27,10:00,0.583,0.843,0.536,1.014,0.721,0.341,0.594,0.558,��,3.5,��
2022/06/27,10:10,0.583,0.843,0.535,1.015,0.719,0.342,0.595,0.557,�쐼,5.9,��
2022/06/27,10:20,0.585,0.841,0.534,1.017,0.720,0.342,0.595,0.559,�쐼,5.8,��
2022/06/27,10:30,0.583,0.841,0.535,1.016,0.721,0.342,0.595,0.559,�쐼,4.3,��
2022/06/27,10:40,0.583,0.843,0.533,1.016,0.720,0.344,0.596,0.558,��쐼,2.8,��
2022/06/27,10:50,0.584,0.843,0.537,1.017,0.720,0.343,0.595,0.560,��,2.2,��
2022/06/27,11:00,0.582,0.843,0.537,1.015,0.723,0.343,0.596,0.560,��쐼,4.3,��
2022/06/27,11:10,0.584,0.843,0.538,1.013,0.723,0.344,0.595,0.560,��쐼,4.1,��
2022/06/27,11:20,0.582,0.844,0.538,1.014,0.723,0.343,0.595,0.560,�쐼,4.4,��
2022/06/27,11:30,0.584,0.844,0.538,1.016,0.722,0.342,0.595,0.559,��,4.7,��
2022/06/27,11:40,0.584,0.844,0.539,1.014,0.722,0.342,0.597,0.560,��,5.7,��
2022/06/27,11:50,0.584,0.841,0.539,1.014,0.723,0.343,0.598,0.561,��,4.2,��
2022/06/27,12:00,0.584,0.848,0.538,1.014,0.722,0.344,0.597,0.560,��,2.2,��
2022/06/27,12:10,0.585,0.848,0.538,1.015,0.722,0.342,0.596,0.561,��,2.2,��
2022/06/27,12:20,0.584,0.850,0.539,1.016,0.725,0.344,0.597,0.560,��,5.2,�L
2022/06/27,12:30,0.584,0.849,0.541,1.015,0.726,0.343,0.595,0.560,���쐼,5.8,�L
2022/06/27,12:40,0.585,0.849,0.540,1.017,0.725,0.344,0.595,0.560,���쐼,5.8,��
2022/06/27,12:50,0.587,0.846,0.539,1.016,0.727,0.343,0.596,0.560,���쐼,6.0,�L
2022/06/27,13:00,0.584,0.847,0.539,1.020,0.726,0.343,0.595,0.561,���쐼,7.9,�L
2022/06/27,13:10,0.585,0.847,0.540,1.018,0.726,0.344,0.595,0.560,���쐼,12.7,�L
2022/06/27,13:20,0.586,0.849,0.539,1.021,0.727,0.343,0.594,0.561,��,9.8,�L
2022/06/27,13:30,0.586,0.849,0.542,1.022,0.726,0.345,0.594,0.559,��,7.6,�L
2022/06/27,13:40,0.586,0.849,0.541,1.022,0.728,0.345,0.595,0.559,��,6.6,�L
2022/06/27,13:50,0.586,0.849,0.540,1.022,0.726,0.344,0.594,0.561,��,6.6,��
2022/06/27,14:00,0.585,0.846,0.541,1.021,0.725,0.344,0.595,0.559,���쐼,6.3,��
2022/06/27,14:10,0.584,0.843,0.540,1.023,0.726,0.344,0.593,0.560,��쓌,5.4,��
2022/06/27,14:20,0.583,0.845,0.538,1.020,0.724,0.344,0.594,0.558,�쓌,5.0,�L
2022/06/27,14:30,0.585,0.844,0.538,1.019,0.726,0.343,0.592,0.560,��쓌,2.2,��
2022/06/27,14:40,0.581,0.845,0.538,1.019,0.725,0.344,0.593,0.562,�쓌,4.0,��
2022/06/27,14:50,0.581,0.842,0.538,1.020,0.725,0.342,0.594,0.558,�쓌,4.7,��
2022/06/27,15:00,0.580,0.845,0.536,1.020,0.723,0.342,0.593,0.559,��쓌,6.6,��
2022/06/27,15:10,0.581,0.845,0.536,1.021,0.723,0.342,0.595,0.560,��쓌,5.3,��
2022/06/27,15:20,0.580,0.843,0.536,1.020,0.722,0.342,0.595,0.559,��,3.3,��
2022/06/27,15:30,0.581,0.845,0.536,1.020,0.723,0.343,0.596,0.558,��쐼,0.8,��
2022/06/27,15:40,0.580,0.846,0.536,1.018,0.721,0.342,0.594,0.562,�k��,1.2,��
2022/06/27,15:50,0.581,0.842,0.535,1.020,0.722,0.342,0.593,0.559,���k��,1.4,��
2022/06/27,16:00,0.580,0.844,0.536,1.019,0.722,0.341,0.594,0.562,�k��,2.8,��
2022/06/27,16:10,0.579,0.843,0.537,1.020,0.724,0.343,0.595,0.560,�k��,2.9,�L
2022/06/27,16:20,0.581,0.843,0.537,1.020,0.726,0.342,0.594,0.562,�k��,2.6,�L
2022/06/27,16:30,0.581,0.843,0.538,1.024,0.726,0.343,0.595,0.562,�k��,1.7,�L
2022/06/27,16:40,0.581,0.845,0.538,1.020,0.724,0.345,0.594,0.563,��,1.1,��
2022/06/27,16:50,0.581,0.845,0.536,1.020,0.725,0.343,0.595,0.563,���쐼,1.7,��
2022/06/27,17:00,0.581,0.845,0.537,1.019,0.725,0.343,0.597,0.563,���k��,3.0,��
2022/06/27,17:10,0.581,0.844,0.539,1.020,0.724,0.343,0.594,0.562,���k��,6.3,��
2022/06/27,17:20,0.582,0.845,0.539,1.022,0.726,0.343,0.595,0.562,���k��,7.7,�L
2022/06/27,17:30,0.582,0.845,0.538,1.021,0.726,0.343,0.595,0.560,���k��,10.2,�L
2022/06/27,17:40,0.583,0.845,0.538,1.021,0.723,0.342,0.596,0.563,��,6.3,�L
2022/06/27,17:50,0.581,0.843,0.538,1.020,0.723,0.343,0.596,0.563,���k��,5.4,��
2022/06/27,18:00,0.580,0.846,0.538,1.020,0.724,0.345,0.595,0.565,���k��,7.1,�L
2022/06/27,18:10,0.580,0.845,0.538,1.019,0.724,0.343,0.596,0.562,���k��,5.1,�L
2022/06/27,18:20,0.579,0.845,0.536,1.019,0.724,0.343,0.596,0.563,�k��,5.6,�L
2022/06/27,18:30,0.580,0.844,0.537,1.020,0.723,0.344,0.595,0.562,���k��,6.9,�L
2022/06/27,18:40,0.581,0.845,0.539,1.021,0.723,0.344,0.595,0.560,��,5.2,�L
2022/06/27,18:50,0.581,0.844,0.539,1.021,0.724,0.343,0.596,0.564,��,6.0,�L
2022/06/27,19:00,0.582,0.845,0.539,1.021,0.724,0.344,0.597,0.563,��쐼,5.8,�L
2022/06/27,19:10,0.581,0.845,0.538,1.023,0.726,0.343,0.595,0.562,��쐼,6.4,�L
2022/06/27,19:20,0.580,0.843,0.541,1.021,0.724,0.344,0.595,0.562,��,7.5,�L
2022/06/27,19:30,0.582,0.845,0.538,1.022,0.725,0.344,0.595,0.561,��쐼,6.5,��
2022/06/27,19:40,0.580,0.845,0.539,1.019,0.722,0.343,0.595,0.563,�쐼,5.0,�L
2022/06/27,19:50,0.582,0.844,0.537,1.021,0.724,0.343,0.595,0.563,�쐼,4.3,��
2022/06/27,20:00,0.581,0.842,0.536,1.021,0.723,0.344,0.596,0.562,�쐼,5.4,��
2022/06/27,20:10,0.581,0.844,0.537,1.021,0.724,0.344,0.595,0.562,��쐼,4.9,�L
2022/06/27,20:20,0.581,0.843,0.537,1.021,0.720,0.343,0.595,0.560,�쐼,5.4,��
2022/06/27,20:30,0.579,0.843,0.538,1.021,0.721,0.343,0.594,0.561,���쐼,3.9,��
2022/06/27,20:40,0.580,0.844,0.538,1.021,0.724,0.342,0.595,0.563,�쐼,4.9,��
2022/06/27,20:50,0.580,0.843,0.538,1.022,0.722,0.344,0.594,0.560,���쐼,4.4,��
2022/06/27,21:00,0.580,0.845,0.537,1.020,0.723,0.343,0.595,0.562,��,4.2,��
2022/06/27,21:10,0.580,0.843,0.538,1.021,0.721,0.343,0.595,0.562,���쐼,4.2,��
2022/06/27,21:20,0.579,0.843,0.536,1.020,0.724,0.343,0.595,0.562,���쐼,4.8,��
2022/06/27,21:30,0.581,0.845,0.537,1.021,0.721,0.344,0.594,0.561,���쐼,2.9,��
2022/06/27,21:40,0.580,0.844,0.538,1.021,0.721,0.343,0.594,0.562,�쐼,2.6,��
2022/06/27,21:50,0.579,0.844,0.536,1.019,0.722,0.343,0.595,0.562,��쓌,2.3,��
2022/06/27,22:00,0.581,0.844,0.535,1.020,0.723,0.343,0.596,0.561,��,1.2,��
2022/06/27,22:10,0.581,0.843,0.538,1.019,0.724,0.344,0.594,0.561,��,2.3,��
2022/06/27,22:20,0.579,0.844,0.537,1.021,0.722,0.343,0.594,0.562,�쐼,1.2,��
2022/06/27,22:30,0.581,0.842,0.537,1.022,0.721,0.342,0.595,0.563,���쐼,2.0,��
2022/06/27,22:40,0.580,0.843,0.536,1.021,0.723,0.342,0.593,0.562,���쐼,1.2,��
2022/06/27,22:50,0.579,0.844,0.536,1.018,0.724,0.342,0.596,0.562,���쐼,1.2,��
2022/06/27,23:00,0.582,0.846,0.537,1.020,0.723,0.344,0.595,0.562,��,2.0,��
2022/06/27,23:10,0.582,0.843,0.536,1.023,0.722,0.343,0.594,0.561,��,2.6,��
2022/06/27,23:20,0.579,0.844,0.538,1.021,0.723,0.341,0.594,0.562,�쐼,2.0,��
2022/06/27,23:30,0.579,0.843,0.536,1.020,0.724,0.343,0.594,0.561,���쐼,4.2,��
2022/06/27,23:40,0.582,0.844,0.537,1.020,0.722,0.342,0.595,0.561,���쐼,6.1,��
2022/06/27,23:50,0.582,0.846,0.537,1.020,0.724,0.344,0.595,0.563,��,3.1,��
